This demonstration page uses our WeatherBlox Daily Observations layout. Learn more.

Left ArrowRight Arrow

Hourly Observations for October 18, 2016

Temp ( °F °C ) Dew Point ( °F °C ) Humidity (%) Winds ( mph kmh ) Pressure ( in mb ) Visibility ( mi km ) Precip ( " mm )
12:53 am 00:53 Cloudy 44 6.7 37 2.8 76 76 WSW 8 13 29.77 1008 10 16 0.00 0.03
1:53 am 01:53 Cloudy 43 6.1 37 2.8 80 80 SW 9 15 29.78 1009 10 16 0.00 0.03
2:53 am 02:53 Cloudy 42 5.6 38 3.3 85 85 W 6 9 29.80 1009 10 16 0.00 0.00
3:53 am 03:53 Cloudy 41 5 38 3.3 89 89 W 3 6 29.82 1010 10 16 0.00 0.00
4:53 am 04:53 Cloudy 39 3.9 37 2.8 93 93 WNW 5 7 29.85 1011 10 16 0.00 0.00
5:53 am 05:53 Cloudy with Light Rain 39 3.9 36 2.2 89 89 NW 10 17 29.87 1012 10 16 0.00 0.03
6:51 am 06:51 Cloudy 37 3 36 2 93 93 NNW 5 7 29.91 1013 10 16 0.02 0.51
6:53 am 06:53 Cloudy 37 2.8 36 2.2 96 96 NNW 5 7 29.90 1012 10 16 0.02 0.51
7:05 am 07:05 Cloudy 37 2.8 36 2.2 96 96 NNW 6 9 29.91 1013 10 16 0.00 0.00
7:32 am 07:32 Cloudy with Light Rain 37 3 36 2 93 93 WNW 3 6 29.94 1014 10 16 0.00 0.00
7:53 am 07:53 Cloudy with Light Rain 37 2.8 36 2.2 96 96 N 3 6 29.91 1013 10 16 0.01 0.25
8:11 am 08:11 Cloudy with Light Rain 37 2.8 36 2.2 96 96 N 6 9 29.94 1014 6 10 0.00 0.03
8:43 am 08:43 Cloudy 37 2.8 36 2.2 96 96 NNW 6 9 29.94 1014 10 16 0.01 0.25
8:51 am 08:51 Cloudy 37 3 36 2 93 93 NNW 6 9 29.94 1014 10 16 0.01 0.25
8:53 am 08:53 Cloudy 37 2.8 35 1.7 93 93 NNW 6 9 29.93 1014 10 16 0.01 0.25
9:43 am 09:43 Cloudy with Light Rain 37 2.8 35 1.7 93 93 NNW 6 9 29.97 1015 10 16 0.00 0.03
9:53 am 09:53 Cloudy 37 2.8 35 1.7 93 93 NNW 6 9 29.95 1014 10 16 0.00 0.03
10:38 am 10:38 Cloudy 37 3 36 2 93 93 N 3 6 29.97 1015 10 16 0.00 0.00
10:53 am 10:53 Cloudy 37 2.8 35 1.7 93 93 NW 6 9 29.96 1014 10 16 0.00 0.00
11:53 am 11:53 Cloudy 39 3.9 36 2.2 89 89 VRB 3 6 29.96 1015 10 16 0.00 0.00
12:37 pm 12:37 Cloudy 40 4.4 36 2.2 86 86 WNW 6 9 30.00 1016 10 16 0.00 0.00
12:53 pm 12:53 Cloudy 40 4.4 36 2.2 86 86 NW 7 11 29.97 1015 10 16 0.00 0.00
1:19 pm 13:19 Cloudy 41 5 36 2.2 82 82 WNW 5 7 29.97 1015 10 16 0.00 0.00
1:49 pm 13:49 Partly Cloudy 43 6 37 3 81 81 VRB 5 7 29.94 1014 10 16 0.00 0.00
1:53 pm 13:53 Partly Cloudy 43 6.1 37 2.8 80 80 Calm 29.96 1014 10 16 0.00 0.00
2:53 pm 14:53 Mostly Cloudy 43 6.1 37 2.8 80 80 NW 3 6 29.96 1015 10 16 0.00 0.00
3:53 pm 15:53 Cloudy 44 6.7 37 2.8 76 76 Calm 29.97 1015 10 16 0.00 0.00
4:53 pm 16:53 Partly Cloudy 44 6.7 37 2.8 76 76 NE 3 6 29.97 1015 10 16 0.00 0.00
5:53 pm 17:53 Mostly Sunny 43 6.1 37 2.8 80 80 E 5 7 29.98 1015 10 16 0.00 0.00
6:53 pm 18:53 Clear 40 4.4 37 2.8 89 89 ENE 5 7 30.01 1016 10 16 0.00 0.00
7:53 pm 19:53 Mostly Cloudy 38 3.3 36 2.2 93 93 Calm 30.04 1017 10 16 0.00 0.00
8:53 pm 20:53 Mostly Cloudy 38 3.3 36 2.2 93 93 ENE 8 13 30.06 1018 10 16 0.00 0.00
9:53 pm 21:53 Partly Cloudy 36 2.2 35 1.7 97 97 E 7 11 30.07 1018 10 16 0.00 0.00
10:53 pm 22:53 Cloudy 36 2.2 35 1.7 97 97 ENE 7 11 30.09 1019 10 16 0.00 0.00
11:53 pm 23:53 Mostly Cloudy 35 1.7 34 1.1 96 96 E 5 7 30.10 1019 10 16 0.00 0.00

Powered by AerisWeather